Location: Ceske Budejovice
(48.9830°N, 14.4670°E)
Time: 18:34:26
(UTC+02:00)

ISS - Pass Details

Date: 05 July 2022
Orbit: 412 x 419 km, 51.6° (Epoch: 09 August)

Event Time Altitude Azimuth Distance (km) Brightness Sun altitude
Exits shadow 03:21:46 12° 259° (W) 1,406 -1.5 -12.2°
Maximum altitude 03:24:54 72° 344° (NNW) 443 -3.6 -11.9°
Drops below altitude 10° 03:28:17 10° 70° (ENE) 1,503 -0.1 -11.6°
Sets 03:30:23 0° 72° (ENE) 2,370 1.0 -11.4°
